User: anonymous   Login
Location: Franzen
(48.6167°N, 15.3833°E)
Time: 23:38:28
(UTC+00:00)
Language:

COSMOS 2406 - Orbit

View from above orbital plane
View from above orbital plane
View from above satellite
View from above satellite

Ground track
Ground track

The orbit data is extracted from the following two-line orbital elements,

1 28352U 04021A   21174.53998202  .00000119  00000-0  91092-4 0  9996
2 28352  71.0067 300.6201 0012483  31.7890 328.3982 14.11710485877886
Epoch (UTC): 23 June 2021 12:57:34
Eccentricity: 0.0012483
inclination: 71.0067°
perigee height: 844 km
apogee height: 862 km
right ascension of ascending node: 300.6201°
argument of perigee: 31.7890°
revolutions per day: 14.11710485
mean anomaly at epoch: 328.3982°
orbit number at epoch: 87788

The dashed part of the orbit path shows where the satellite is in the earth's shadow,  

DLR